COSMOS 1670 DEB, 44569

Orbit data source: Space-Track

COSMOS 1670 DEB, 44569 is space debris in LEO originally from a launch on Thu, 01 Aug 1985 UTC launched from the Tyuratam Missile And Space Complex (TTMTR). Debris objects in space refer to the collection of defunct objects orbiting the Earth. Examples of debris include non-operational satellites, rocket bodies, and fragments generated from explosions, collisions, or faulty payload assembly.

Loading next visibility...
Identifier
44569, 1985-064F
Orbit
LEO
Last TLE update
16 hours ago
Origin
Manufacturer
Unknown
Mission
Spacecraft
Bus & Motor
Unknown
Mass
Unknown
Launch date (UTC)
1985-08-01 (40 years ago)
Launch vehicle
Unknown
Launch site
Tyuratam Missile And Space Complex (TTMTR)
Object type
Payload
Rocket body
Debris
Shape & HBR
Unknown
Radar Cross Section
Small (<0.1 m²)

Expand to show TLE details & history

TLE from 16 hours ago
0 COSMOS 1670 DEB
1 44569U 85064F   25182.58060466  .00008351  00000-0  23859-2 0  9990
2 44569  64.9045 287.7630 0018352 181.5834 192.1674 14.45476878 55127
Epoch: 2025-07-01T13:56Z
TLE epoch observation values (Epoch: 2025-07-01T13:56:04.242Z)
Latitude
12.36799°
Longitude
164.73421°
Altitude
754.451 km
Speed
7.472 km/s
True Right ascension
19h 34m 30s
True Declination
12° 17' 46"
Sunlit
Object was in full shadow at epoch
Visualization orbit readout
Latitude
-63.0411°
Longitude
90.60131°
Altitude
765.642 km
Speed
7.47 km/s
Apparent Right ascension
08h 34m 10s
Apparent Declination
-70° 51' 30"
Sunlit
Object is in full shadow
Visualization observer readout
Local Sidereal Time
17:48:10
Azimuth
200.967° SSW
Elevation
-52.613°
Doppler factor
1
Orbital elements
Apogee altitude
752.102 km
Perigee altitude
725.979 km
Semi-major axis
7,117.178 km
Eccentricity
0.00184
Inclination
64.9045°
RAAN
287.763°
Arg. of periapsis
181.5834°
True anomaly
Unknown
Mean anomaly
192.1674°
Eccentric anomaly
Unknown
Mean motion
3.61478 °/min
Orbital period
99.59 mins
BSTAR
0.0023859
Loading maneuver chart data...
Loading SW <> Apogee altitude chart data...
Loading historical data...
Loading historical data...
Loading historical data...
Loading historical data...
Loading historical data...
Loading historical data...
Loading historical data...

COSMOS 1670 DEB Visibility forecast

Observer location: undefined°, undefined°

Span
Click to sort rows by Start time (UTC) header in descending order
Start Az.
Max El. time (UTC)
Max El. Az.
Max El.
End time (UTC)
End Az.
9 mins2025-07-02 08:15:29.779Z186.447° SSW2025-07-02 08:19:29.779Z129.512° SE35.955°2025-07-02 08:24:29.779Z44.137° NE
7 mins2025-07-02 09:59:29.779Z266.712° W2025-07-02 10:02:29.779Z311.068° NW23.406°2025-07-02 10:06:29.779Z6.814° NNE
7 mins2025-07-02 16:59:29.779Z351.913° N2025-07-02 17:02:29.779Z52.967° ENE33.893°2025-07-02 17:06:29.779Z119.752° SE
6 mins2025-07-02 18:42:29.779Z286.079° WNW2025-07-02 18:44:29.779Z254.123° W22.675°2025-07-02 18:48:29.779Z197.684° SSW
|